EW2672 Weather Reports


time (UTC)temp
C
wind
direction
speed
KPH
gust
KPH
rain 1hr
cm
rain 24hr
cm
rain mn
cm
humidity
%
barometer
mb
20260506103532 23 0.0 0.0 0.00 0.00 0.00 91 1009.4
20260506103030 23 0.0 0.0 0.00 0.00 0.00 91 1009.3
20260506102528 23 0.0 0.0 0.00 0.00 0.00 91 1009.2
20260506102024 23 0.0 1.6 0.00 0.00 0.00 91 1009.2
20260506101522 23 0.0 1.6 0.00 0.00 0.00 91 1009.1
20260506101020 23 0.0 0.0 0.00 0.00 0.00 90 1009.2
20260506100518 23 0.0 6.4 0.00 0.00 0.00 90 1009.0
20260506100014 23 0.0 6.4 0.00 0.00 0.00 90 1009.0
20260506095512 23 0.0 0.0 0.00 0.00 0.00 90 1008.9
20260506095010 23 0.0 0.0 0.00 0.00 0.00 89 1008.9
20260506094508 23 0.0 6.4 0.00 0.00 0.00 89 1008.9
20260506094004 23 171 1.6 8.0 0.00 0.00 0.00 89 1008.8
20260506093502 23 0.0 0.0 0.00 0.00 0.00 89 1008.8
20260506092958 23 0.0 0.0 0.00 0.00 0.00 89 1008.6
20260506092456 23 0.0 0.0 0.00 0.00 0.00 88 1008.5
20260506091954 23 0.0 1.6 0.00 0.00 0.00 89 1008.6
20260506091452 23 0.0 0.0 0.00 0.00 0.00 88 1008.6
20260506090948 23 0.0 0.0 0.00 0.00 0.00 88 1008.5
20260506090446 23 0.0 4.8 0.00 0.00 0.00 88 1008.5
20260506085944 23 0.0 4.8 0.00 0.00 0.00 88 1008.5
20260506085442 23 0.0 3.2 0.00 0.00 0.00 88 1008.4
20260506084938 23 0.0 1.6 0.00 0.00 0.00 88 1008.3
20260506084436 23 0.0 0.0 0.00 0.00 0.00 88 1008.3
20260506083934 23 0.0 4.8 0.00 0.00 0.00 88 1008.4
20260506083432 23 0.0 6.4 0.00 0.00 0.00 88 1008.5
20260506082928 23 170 1.6 6.4 0.00 0.00 0.00 88 1008.4
20260506082429 23 0.0 4.8 0.00 0.00 0.00 88 1008.4
20260506081924 23 0.0 8.0 0.00 0.00 0.00 88 1008.3
20260506081422 23 0.0 8.0 0.00 0.00 0.00 88 1008.4
20260506080918 23 185 1.6 6.4 0.00 0.00 0.00 88 1008.4
20260506080416 23 0.0 6.4 0.00 0.00 0.00 87 1008.4
20260506073402 23 150 1.6 14.5 0.00 0.00 0.00 87 1008.4
20260506072858 23 203 1.6 14.5 0.00 0.00 0.00 87 1008.5
20260506072356 23 170 3.2 16.1 0.00 0.00 0.00 87 1008.5
20260506071854 23 202 3.2 16.1 0.00 0.00 0.00 87 1008.5
20260506071352 23 164 3.2 17.7 0.00 0.00 0.00 87 1008.6
20260506070848 23 171 3.2 19.3 0.00 0.00 0.00 87 1008.5
20260506070346 23 185 3.2 19.3 0.00 0.00 0.00 87 1008.4
20260506062326 23 167 1.6 14.5 0.00 0.00 0.00 87 1008.3
20260506061822 23 169 3.2 11.3 0.00 0.00 0.00 87 1008.4
20260506061320 23 0.0 12.9 0.00 0.00 0.00 87 1008.3
20260506060818 23 168 3.2 20.9 0.00 0.00 0.00 87 1008.4
20260506060316 23 168 6.4 20.9 0.00 0.00 0.00 87 1008.3
20260506051249 23 1.6 9.7 0.00 0.00 0.00 88 1008.5
20260506050747 23 206 1.6 9.7 0.00 0.00 0.00 88 1008.5
20260506050246 23 0.0 8.0 0.00 0.00 0.00 88 1008.5
20260506044737 23 184 3.2 11.3 0.00 0.00 0.00 88 1008.4
20260506044235 23 190 1.6 9.7 0.00 0.00 0.00 88 1008.5
20260506043731 23 174 1.6 12.9 0.00 0.00 0.00 88 1008.5
20260506043229 23 174 3.2 12.9 0.00 0.00 0.00 88 1008.6
20260506042727 23 0.0 8.0 0.00 0.00 0.00 88 1008.5
20260506042225 23 0.0 8.0 0.00 0.00 0.00 88 1008.4
20260506041721 24 177 1.6 6.4 0.00 0.00 0.00 88 1008.4
20260506041219 24 0.0 6.4 0.00 0.00 0.00 87 1008.4
20260506040717 24 0.0 8.0 0.00 0.00 0.00 87 1008.3
20260506040215 24 0.0 6.4 0.00 0.00 0.00 87 1008.3
20260506035711 24 0.0 1.6 0.00 0.00 0.00 86 1008.3
20260506035209 24 0.0 6.4 0.00 0.00 0.00 86 1008.2
20260506034707 24 182 1.6 11.3 0.00 0.00 0.00 86 1008.1
20260506034205 24 189 1.6 11.3 0.00 0.00 0.00 86 1008.0
20260506033701 24 189 1.6 8.0 0.00 0.00 0.00 86 1008.0
20260506033159 24 0.0 3.2 0.00 0.00 0.00 85 1007.9
20260506032655 24 0.0 0.0 0.00 0.00 0.00 85 1008.0
20260506032153 24 0.0 0.0 0.00 0.00 0.00 84 1007.9
20260506031651 24 0.0 4.8 0.00 0.00 0.00 84 1007.8
20260506031149 24 208 1.6 4.8 0.00 0.00 0.00 84 1007.8
20260506030645 24 0.0 4.8 0.00 0.00 0.00 84 1007.7
20260506030143 24 0.0 0.0 0.00 0.00 0.00 84 1007.5
20260506025641 25 0.0 0.0 0.00 0.00 0.00 83 1007.5
20260506025139 25 0.0 0.0 0.00 0.00 0.00 83 1007.5
20260506024635 25 0.0 0.0 0.00 0.00 0.00 83 1007.4
20260506024133 25 0.0 1.6 0.00 0.00 0.00 82 1007.3
20260506023631 25 0.0 1.6 0.00 0.00 0.00 82 1007.2
20260506023129 25 0.0 1.6 0.00 0.00 0.00 82 1007.1
20260506022625 25 0.0 1.6 0.00 0.00 0.00 82 1007.0
20260506022123 25 0.0 0.0 0.00 0.00 0.00 81 1006.9
20260506021621 25 0.0 0.0 0.00 0.00 0.00 81 1006.8
20260506021119 25 0.0 0.0 0.00 0.00 0.00 81 1006.8
20260506020615 25 0.0 1.6 0.00 0.00 0.00 81 1006.7
20260506020113 25 0.0 1.6 0.00 0.00 0.00 81 1006.7
20260506015611 25 0.0 1.6 0.00 0.00 0.00 80 1006.7
20260506015109 25 0.0 1.6 0.00 0.00 0.00 80 1006.7
20260506014605 25 0.0 0.0 0.00 0.00 0.00 80 1006.5
20260506014103 25 0.0 0.0 0.00 0.00 0.00 79 1006.4
20260506013601 26 0.0 1.6 0.00 0.00 0.00 79 1006.4
20260506013059 26 0.0 1.6 0.00 0.00 0.00 78 1006.4
20260506012555 26 0.0 0.0 0.00 0.00 0.00 77 1006.3
20260506012053 26 0.0 1.6 0.00 0.00 0.00 77 1006.3
20260506011551 26 0.0 1.6 0.00 0.00 0.00 76 1006.2
20260506011049 26 0.0 1.6 0.00 0.00 0.00 76 1006.3
20260506010545 26 0.0 1.6 0.00 0.00 0.00 76 1006.2
20260506010043 26 0.0 4.8 0.00 0.00 0.00 75 1006.2
20260506005541 26 0.0 6.4 0.00 0.00 0.00 75 1006.2
20260506005037 27 0.0 11.3 0.00 0.00 0.00 75 1006.2
20260506004535 27 0.0 9.7 0.00 0.00 0.00 74 1006.2
20260506004033 27 0.0 6.4 0.00 0.00 0.00 74 1006.3
20260506003529 27 0.0 6.4 0.00 0.00 0.00 74 1006.3
20260506003027 27 0.0 4.8 0.00 0.00 0.00 73 1006.4
20260506002525 27 0.0 4.8 0.00 0.00 0.00 73 1006.2
20260506002023 27 0.0 6.4 0.00 0.00 0.00 74 1006.3
20260506001519 27 0.0 6.4 0.00 0.00 0.00 73 1006.3
20260506001017 27 0.0 6.4 0.00 0.00 0.00 73 1006.2
20260506000515 27 161 1.6 8.0 0.00 0.00 0.00 73 1006.2
20260506000013 27 0.0 6.4 0.00 0.00 0.00 72 1006.4
20260505235509 27 0.0 6.4 0.00 0.00 0.00 72 1006.4
20260505235007 27 0.0 9.7 0.00 0.00 0.00 72 1006.2
20260505234505 27 181 1.6 9.7 0.00 0.00 0.00 71 1006.4
20260505234003 27 0.0 9.7 0.00 0.00 0.00 71 1006.2
20260505233459 27 0.0 8.0 0.00 0.00 0.00 71 1006.2
20260505232957 27 0.0 8.0 0.00 0.00 0.00 71 1006.1
20260505232455 27 1.6 8.0 0.00 0.00 0.00 70 1006.0
20260505231953 27 176 1.6 8.0 0.00 0.00 0.00 70 1006.0
20260505231449 28 194 1.6 8.0 0.00 0.00 0.00 72 1006.0
20260505230947 28 1.6 9.7 0.00 0.00 0.00 70 1005.9
20260505230445 28 188 1.6 9.7 0.00 0.00 0.00 70 1005.8
20260505225943 28 1.6 8.0 0.00 0.00 0.00 70 1005.8
20260505225439 28 183 1.6 8.0 0.00 0.00 0.00 70 1005.8
20260505224937 28 0.0 6.4 0.00 0.00 0.00 70 1005.7
20260505224435 28 158 1.6 8.0 0.00 0.00 0.00 70 1005.7
20260505223933 28 0.0 9.7 0.00 0.00 0.00 70 1005.7
20260505223429 28 190 3.2 11.3 0.00 0.00 0.00 71 1005.8
20260505222927 28 188 3.2 12.9 0.00 0.00 0.00 70 1005.9
20260505222425 28 191 1.6 12.9 0.00 0.00 0.00 70 1005.8
20260505221923 28 167 1.6 12.9 0.00 0.00 0.00 70 1005.7
20260505221419 28 1.6 12.9 0.00 0.00 0.00 70 1005.6
20260505220917 28 178 1.6 12.9 0.00 0.00 0.00 71 1005.7
20260505220413 28 148 1.6 12.9 0.00 0.00 0.00 70 1005.7
20260505215911 28 166 1.6 16.1 0.00 0.00 0.00 70 1005.7
20260505215409 28 191 6.4 17.7 0.00 0.00 0.00 68 1005.8
20260505214907 28 158 3.2 14.5 0.00 0.00 0.00 70 1005.9
20260505214403 28 156 3.2 17.7 0.00 0.00 0.00 69 1006.0
20260505213901 28 194 1.6 17.7 0.00 0.00 0.00 70 1005.9
20260505213359 28 149 1.6 9.7 0.00 0.00 0.00 69 1005.9
20260505212857 28 168 4.8 12.9 0.00 0.00 0.00 69 1006.1
20260505212352 28 191 1.6 12.9 0.00 0.00 0.00 69 1006.2
20260505211850 28 182 1.6 11.3 0.00 0.00 0.00 69 1006.2
20260505211349 28 180 3.2 11.3 0.00 0.00 0.00 70 1006.3
20260505210846 28 0.0 11.3 0.00 0.00 0.00 71 1006.4
20260505210342 28 0.0 9.7 0.00 0.00 0.00 71 1006.5
20260505205840 28 1.6 8.0 0.00 0.00 0.00 71 1006.5
20260505205338 28 192 1.6 12.9 0.00 0.00 0.00 71 1006.5
20260505204836 28 187 3.2 12.9 0.00 0.00 0.00 68 1006.5
20260505204332 29 192 1.6 9.7 0.00 0.00 0.00 69 1006.7
20260505203831 28 0.0 14.5 0.00 0.00 0.00 71 1006.5
20260505203328 28 195 3.2 19.3 0.00 0.00 0.00 70 1006.5
20260505202826 28 0.0 19.3 0.00 0.00 0.00 69 1006.8
20260505202322 28 178 1.6 11.3 0.00 0.00 0.00 69 1006.8
20260505201820 28 187 1.6 12.9 0.00 0.00 0.00 69 1006.9
20260505201318 28 184 3.2 16.1 0.00 0.00 0.00 68 1007.1
20260505200816 28 184 3.2 16.1 0.00 0.00 0.00 68 1007.1
20260505200312 28 177 1.6 16.1 0.00 0.00 0.00 70 1007.1
20260505195810 28 185 3.2 16.1 0.00 0.00 0.00 69 1007.2
20260505195308 28 176 4.8 16.1 0.00 0.00 0.00 69 1007.2
20260505194806 28 172 4.8 16.1 0.00 0.00 0.00 70 1007.1
20260505194302 28 162 4.8 16.1 0.00 0.00 0.00 70 1007.3
20260505193800 28 189 1.6 12.9 0.00 0.00 0.00 71 1007.4
20260505193256 27 180 3.2 12.9 0.00 0.00 0.00 71 1007.5
20260505192754 27 1.6 12.9 0.00 0.00 0.00 71 1007.6
20260505192254 27 181 3.2 12.9 0.00 0.00 0.00 72 1007.6
20260505191752 27 182 3.2 12.9 0.00 0.00 0.00 70 1007.6
20260505191248 27 190 3.2 17.7 0.00 0.00 0.00 71 1007.6
20260505190746 27 179 3.2 17.7 0.00 0.00 0.00 69 1007.7
20260505190242 27 159 1.6 12.9 0.00 0.00 0.00 71 1007.7
20260505185740 27 157 1.6 12.9 0.00 0.00 0.00 73 1007.8
20260505185238 27 197 1.6 12.9 0.00 0.00 0.00 71 1007.8
20260505184736 27 166 3.2 12.9 0.00 0.00 0.00 71 1007.9
20260505184232 27 164 1.6 8.0 0.00 0.00 0.00 73 1008.1
20260505183730 27 1.6 11.3 0.00 0.00 0.00 73 1008.1
20260505183228 27 190 1.6 11.3 0.00 0.00 0.00 74 1008.2
20260505182726 26 0.0 8.0 0.00 0.00 0.00 75 1008.3
20260505182222 26 186 1.6 11.3 0.00 0.00 0.00 74 1008.4
20260505181720 26 1.6 11.3 0.00 0.00 0.00 74 1008.5
20260505181218 26 1.6 9.7 0.00 0.00 0.00 76 1008.5
20260505180716 26 175 3.2 17.7 0.00 0.00 0.00 76 1008.5
20260505180212 25 161 3.2 17.7 0.00 0.00 0.00 76 1008.5
20260505175710 25 196 1.6 12.9 0.00 0.00 0.00 77 1008.5
20260505175208 25 0.0 9.7 0.00 0.00 0.00 76 1008.7
20260505174706 25 212 1.6 14.5 0.00 0.00 0.00 77 1008.9
20260505174202 25 201 1.6 14.5 0.00 0.00 0.00 77 1008.9
20260505173700 25 174 1.6 8.0 0.00 0.00 0.00 79 1008.9
20260505173158 24 190 1.6 9.7 0.00 0.00 0.00 79 1008.8
20260505172656 24 0.0 8.0 0.00 0.00 0.00 79 1008.8
20260505172152 24 1.6 11.3 0.00 0.00 0.00 80 1008.9
20260505171650 24 0.0 11.3 0.00 0.00 0.00 81 1008.9
20260505171148 24 172 3.2 16.1 0.00 0.00 0.00 82 1008.9
20260505170646 23 175 1.6 16.1 0.00 0.00 0.00 82 1008.8
20260505170142 23 186 1.6 9.7 0.00 0.00 0.00 83 1009.0
20260505165640 23 0.0 11.3 0.00 0.00 0.00 83 1009.0
20260505165138 23 181 1.6 11.3 0.00 0.00 0.00 83 1009.0
20260505164636 23 0.0 8.0 0.00 0.00 0.00 84 1009.0
20260505164132 23 1.6 8.0 0.00 0.00 0.00 83 1009.0
20260505163630 23 0.0 8.0 0.00 0.00 0.00 84 1009.0
20260505163128 23 0.0 8.0 0.00 0.00 0.00 84 1009.1
20260505162626 22 0.0 17.7 0.00 0.00 0.00 84 1009.0
20260505162122 22 187 1.6 17.7 0.00 0.00 0.00 85 1009.1
20260505161620 22 0.0 8.0 0.00 0.00 0.00 85 1009.1
20260505161116 22 0.0 8.0 0.00 0.00 0.00 85 1009.1
20260505160614 22 0.0 9.7 0.00 0.00 0.00 84 1008.9
20260505160112 22 195 1.6 9.7 0.00 0.00 0.00 85 1008.9
20260505153056 22 0.0 8.0 0.00 0.00 0.00 87 1009.0
20260505152554 22 0.0 8.0 0.00 0.00 0.00 87 1009.0
20260505152052 22 1.6 8.0 0.00 0.00 0.00 87 1009.0
20260505151550 22 1.6 9.7 0.00 0.00 0.00 87 1009.0
20260505151046 22 1.6 9.7 0.00 0.00 0.00 87 1008.9
20260505150544 22 188 1.6 6.4 0.00 0.00 0.00 87 1008.9
20260505140514 21 0.0 11.3 0.00 0.00 0.00 87 1008.4
20260505124936 21 0.0 11.3 0.00 0.00 0.00 88 1007.9
20260505124434 21 160 1.6 11.3 0.00 0.00 0.00 88 1007.9
20260505123930 21 183 1.6 16.1 0.00 0.00 0.00 88 1007.8
20260505123428 21 0.0 16.1 0.00 0.00 0.00 88 1007.7
20260505122926 21 176 3.2 12.9 0.00 0.00 0.00 88 1007.5
20260505122424 21 1.6 9.7 0.00 0.00 0.00 88 1007.4
20260505121920 21 1.6 11.3 0.00 0.00 0.00 88 1007.3
20260505121419 21 184 3.2 12.9 0.00 0.00 0.00 88 1007.2
20260505120916 21 170 3.2 12.9 0.00 0.00 0.00 88 1007.2
20260505120414 21 0.0 9.7 0.00 0.00 0.00 89 1007.2
20260505115910 21 187 1.6 11.3 0.00 0.00 0.00 89 1007.1
20260505115408 21 170 1.6 14.5 0.00 0.00 0.00 88 1007.0
20260505114906 21 147 3.2 14.5 0.00 0.00 0.00 88 1006.9
20260505114404 21 182 1.6 9.7 0.00 0.00 0.00 88 1006.9
20260505113900 21 208 1.6 11.3 0.00 0.00 0.00 88 1006.9
20260505113358 21 189 3.2 12.9 0.00 0.00 0.00 87 1006.9
20260505112856 21 175 3.2 14.5 0.00 0.00 0.00 87 1006.9
20260505112354 21 194 4.8 12.9 0.00 0.00 0.00 87 1006.9
20260505111850 21 173 1.6 11.3 0.00 0.00 0.00 87 1006.9
20260505111348 21 168 3.2 14.5 0.00 0.00 0.00 87 1006.8
20260505110846 21 180 3.2 14.5 0.00 0.00 0.00 87 1006.9
20260505110344 21 181 4.8 14.5 0.00 0.00 0.00 87 1006.9